Dewpoint
70 70 71 73 73 72 73 73 73 73 73 72 72 73 73 73 73 73 73 73 73 73 73 73 73 73 73 73 73 73 73 73 73 72 72 71 71 71 71 71 70 69 68 68 68 68 68 68 69 69 70 70 70 70 70 69 69 69 69 69 69 69 69 69 69 69 68 68 67 68 68 68 69 68 67 67 66 66 65 66 66 66 65 64 65
69 70 71 72 73 73 73 73 73 73 72 72 72 73 73 73 73 72 73 73 73 73 73 73 73 73 73 73 73 73 73 73 72 72 72 71 71 71 71 70 70 70 69 68 68 68 68 68 68 68 69 70 70 70 69 69 69 69 69 69 68 69 69 69 69 69 69 68 68 68 68 68 68 68 67 67 66 66 66 66 66 66 65 64 64
70 71 72 71 72 72 73 72 72 72 72 72 73 73 73 73 73 73 72 72 73 73 73 73 73 73 73 73 72 72 72 73 73 72 72 71 71 71 70 69 69 69 69 69 68 68 68 68 68 68 69 70 70 69 69 69 68 68 68 69 69 69 69 69 69 69 68 68 68 68 67 68 67 68 67 66 66 65 65 65 65 66 65 66 65
70 71 71 72 72 72 73 72 72 72 72 72 72 72 73 72 72 72 72 73 73 73 73 73 73 73 73 72 72 72 72 72 72 72 72 71 71 70 70 69 69 69 69 69 68 68 68 68 68 68 68 68 68 68 68 69 68 68 68 69 69 68 68 68 68 67 68 67 68 68 68 64 66 67 66 67 67 65 65 65 65 65 64 64 64
70 71 71 71 71 72 73 72 72 72 72 72 72 72 72 72 73 72 73 73 72 73 73 73 73 73 73 73 73 73 72 72 72 72 71 71 71 71 70 70 69 69 69 69 69 69 68 67 68 68 68 68 68 67 67 68 68 68 68 68 68 68 68 68 68 67 67 67 67 68 63 64 64 65 65 66 67 65 64 64 64 64 64 65 65
71 71 71 71 71 72 72 72 72 72 72 72 72 72 72 72 73 73 73 73 72 72 72 73 73 73 73 73 72 72 72 72 72 71 71 71 71 70 70 70 70 70 70 70 69 69 68 67 67 68 68 67 68 68 67 68 68 68 68 68 68 68 68 68 68 68 66 66 66 65 63 64 64 65 65 65 65 65 64 64 64 63 63 65 64
70 70 70 70 71 72 72 72 72 72 71 72 72 72 72 72 72 72 72 72 72 72 72 73 73 73 73 72 72 72 72 72 72 71 71 71 71 71 71 70 70 70 69 69 69 69 69 69 68 68 67 67 67 68 67 68 68 68 67 67 67 67 67 67 68 68 67 66 62 62 62 64 65 65 64 65 65 65 65 65 64 64 64 63 64
70 70 70 70 71 72 72 72 71 71 71 72 72 71 72 71 72 72 72 72 72 72 72 72 73 73 73 73 73 72 72 72 72 72 71 71 71 71 71 70 70 70 69 70 70 69 69 68 69 69 68 68 68 67 67 67 67 67 68 67 67 68 67 68 68 68 67 66 63 62 62 64 66 66 65 65 66 67 66 66 65 64 63 63 62
70 70 70 70 70 72 72 72 71 70 71 72 71 71 71 71 72 72 72 72 72 72 73 73 72 73 73 72 72 72 72 72 72 72 71 71 71 71 71 70 70 70 69 69 69 69 69 68 68 68 68 69 69 68 68 68 68 68 68 68 68 69 69 70 70 70 69 66 64 62 63 66 66 66 68 69 67 67 67 67 67 65 64 63 62
70 70 70 70 70 71 72 72 71 70 71 71 71 71 71 71 71 72 72 72 72 72 72 73 72 72 72 72 72 72 72 72 72 72 71 71 71 71 71 71 70 70 69 69 69 69 68 69 69 68 69 69 68 69 68 69 69 69 69 69 69 70 70 70 68 69 67 65 63 63 65 70 66 67 68 67 66 66 65 65 67 65 64 63 62
70 70 70 70 71 72 72 71 71 71 71 71 71 71 71 71 71 72 72 72 72 72 72 72 73 72 72 72 72 72 72 72 72 71 71 71 71 71 71 70 69 69 69 69 69 68 69 69 69 69 69 69 69 69 69 69 69 69 69 70 70 70 70 68 67 66 66 63 63 64 69 69 64 65 67 67 67 66 65 65 64 64 64 64 62
70 70 70 71 72 72 72 71 71 71 71 71 71 71 71 71 71 72 72 72 72 72 72 72 72 72 72 72 72 72 72 72 72 71 71 70 71 71 70 69 69 70 70 69 69 69 70 69 69 70 69 69 69 69 69 69 70 70 70 70 70 70 69 69 66 64 63 63 64 65 67 66 64 66 66 66 66 65 65 65 64 63 62 61 62
69 70 70 70 71 72 72 71 70 71 70 71 71 71 71 71 72 72 72 73 72 72 72 72 72 72 72 72 72 72 71 71 71 71 71 71 71 70 70 71 71 70 68 68 69 69 70 70 69 70 70 70 70 70 70 70 70 70 70 70 70 70 69 69 66 65 65 66 66 66 65 64 64 68 66 66 65 65 64 64 64 63 62 62 63
69 69 70 70 70 71 71 71 71 70 70 71 71 71 71 72 72 72 73 73 72 72 72 72 72 72 72 72 72 71 71 71 71 70 70 70 70 70 70 70 70 69 68 68 69 70 70 70 70 70 70 70 70 70 70 70 70 70 70 70 70 70 70 69 68 65 66 66 66 65 64 65 64 68 66 66 65 64 64 63 63 63 62 62 62
69 69 69 69 70 70 71 71 71 71 71 71 72 72 72 72 72 73 73 72 72 72 72 72 72 72 72 72 71 71 71 70 70 69 69 69 68 68 68 67 68 69 69 69 69 69 70 70 70 70 70 70 70 71 70 70 71 71 70 71 71 71 71 67 67 65 65 66 66 67 64 64 68 67 66 66 65 64 64 63 63 63 62 62 61
69 69 69 68 69 69 69 70 71 71 71 71 72 72 72 73 72 72 73 72 73 72 72 72 72 72 72 71 71 71 70 70 70 70 69 69 68 68 68 68 68 68 69 69 69 69 69 70 70 70 70 70 71 70 70 71 71 71 71 71 71 71 71 70 66 64 64 65 65 65 63 64 68 67 66 66 65 64 64 64 63 62 62 61 61
69 69 68 68 68 68 69 69 71 71 71 71 71 72 72 73 72 72 72 72 72 72 72 72 72 72 71 71 71 71 70 70 70 69 69 69 68 68 68 68 68 68 68 69 68 69 69 69 69 70 70 70 70 70 70 71 71 71 71 70 71 71 70 69 65 64 63 65 66 65 63 64 67 67 67 66 65 64 64 64 63 63 62 62 61
68 68 67 67 67 68 69 69 70 70 71 72 72 72 73 73 73 72 73 72 72 72 72 72 72 72 71 71 71 70 70 69 69 69 68 68 68 67 67 68 68 68 68 67 68 68 68 69 69 69 70 70 70 70 70 71 71 71 71 71 71 71 69 68 64 64 64 66 64 65 65 67 68 67 67 66 66 65 64 64 64 63 62 62 61
67 67 67 67 67 68 68 69 70 70 71 71 72 72 72 73 72 73 72 72 72 72 72 72 72 71 71 71 70 70 70 69 69 68 68 67 67 67 67 67 67 68 67 67 67 68 68 67 69 67 70 68 70 70 70 71 71 71 72 71 71 70 68 68 64 64 64 65 63 64 64 67 68 67 67 66 65 65 65 65 64 64 63 62 61
67 67 67 67 67 68 69 69 69 70 71 71 72 71 72 73 72 73 73 72 72 72 72 72 72 71 71 70 70 70 69 68 69 67 68 68 67 66 67 67 67 67 67 67 67 67 67 67 67 68 68 69 70 70 70 69 70 71 71 72 72 70 64 63 63 64 62 63 64 63 66 67 68 67 67 66 66 66 66 65 64 64 64 62 61
67 67 67 67 68 69 69 69 69 70 71 72 71 71 72 72 72 73 72 72 72 71 72 71 71 71 70 71 70 67 67 67 66 66 69 66 68 67 67 67 67 67 67 67 67 67 67 67 68 68 69 69 69 70 69 69 68 69 71 72 71 64 63 63 63 64 63 64 66 63 66 67 68 68 68 67 66 67 66 65 65 64 63 63 62
66 66 67 68 69 69 69 69 69 69 71 71 71 71 72 72 71 71 71 71 71 72 71 70 70 68 70 69 67 68 66 65 66 70 68 68 68 68 67 67 67 67 68 68 68 68 68 68 69 69 69 69 69 65 65 67 67 69 70 70 66 63 63 62 62 61 64 63 66 64 66 67 68 68 68 66 67 67 66 65 65 64 64 63 63
65 66 67 68 68 68 68 68 68 69 71 71 71 71 71 71 70 70 71 72 72 72 70 70 68 67 68 68 68 68 66 67 67 68 69 70 68 69 69 67 67 67 67 67 68 68 68 68 69 69 68 68 63 61 61 61 62 67 67 66 65 66 64 62 62 62 64 63 64 65 67 67 68 68 68 67 67 67 67 65 65 64 64 64 63
65 65 66 67 68 68 68 68 69 70 70 71 71 71 71 71 71 70 70 70 70 70 69 68 67 67 67 67 67 67 68 66 71 71 71 68 67 70 69 69 68 69 68 68 69 69 68 68 67 67 66 64 61 61 61 61 62 62 63 64 65 65 65 63 63 63 62 64 65 65 67 68 68 69 69 68 67 68 67 66 65 65 64 64 64
65 65 66 66 67 67 68 68 68 69 70 71 71 71 71 71 70 70 70 70 70 69 68 67 67 67 67 67 67 68 67 66 66 67 66 65 65 64 64 64 64 64 69 63 63 64 64 62 62 63 59 59 60 60 60 59 60 60 61 62 63 64 64 64 63 63 61 61 65 66 67 68 69 69 69 69 68 68 67 66 66 65 64 64 63
65 65 65 66 67 67 67 68 68 68 69 70 70 70 71 70 70 70 70 70 69 68 67 68 67 67 67 67 68 68 66 67 66 65 66 65 65 65 65 64 64 65 67 65 65 64 64 63 62 62 61 59 59 59 59 63 60 60 60 61 63 64 64 64 63 64 63 62 63 67 67 69 70 70 69 69 68 68 68 67 65 66 65 64 64
65 64 65 66 67 67 67 68 68 68 69 70 70 70 70 70 70 70 70 70 69 68 68 67 67 67 67 67 68 66 66 65 65 65 65 65 65 65 65 65 65 65 66 65 65 65 65 64 63 61 59 58 58 58 58 58 59 58 59 60 63 64 64 64 63 64 63 63 64 66 68 69 70 70 69 69 69 68 69 68 67 66 66 65 65
65 65 66 66 67 67 67 68 67 68 69 70 70 70 69 69 69 70 70 70 69 68 67 68 68 67 68 67 69 67 66 65 66 65 65 65 66 66 66 66 66 66 66 66 66 65 65 64 63 62 62 61 59 60 59 60 61 59 60 61 61 62 63 64 64 64 63 62 63 66 68 70 70 70 70 70 70 69 69 69 68 67 67 66 66
65 65 66 66 66 67 67 67 67 68 68 69 69 69 69 68 69 70 69 71 69 68 68 67 68 67 67 68 69 66 65 66 66 66 65 65 65 66 67 67 66 66 66 65 65 65 64 64 63 63 63 63 64 65 65 65 63 62 61 61 61 61 61 61 62 61 62 62 62 64 68 70 70 69 70 70 70 70 69 68 68 67 67 67 67
65 65 66 66 66 67 67 67 67 68 68 68 68 68 68 68 68 69 69 70 68 68 67 66 65 66 66 68 67 66 66 66 65 65 66 66 66 66 66 65 65 65 65 66 65 65 65 64 64 64 65 64 65 66 66 65 65 63 63 62 62 62 61 61 61 61 61 62 62 64 67 69 70 69 69 70 70 70 69 68 68 68 68 68 67
65 65 66 66 67 67 67 67 67 68 67 68 67 67 67 67 68 68 68 69 67 67 66 66 66 66 67 66 67 67 66 66 66 66 66 66 65 65 64 65 64 65 65 66 65 65 65 65 65 64 64 64 65 65 65 64 64 64 64 63 63 63 62 62 63 63 62 62 62 63 65 68 69 70 70 69 69 70 70 69 69 67 68 68 67
65 64 65 66 67 66 67 67 66 67 66 67 67 66 66 67 67 67 67 66 66 66 66 67 68 66 66 66 67 67 67 66 66 66 66 65 64 63 64 64 64 64 66 65 65 66 65 65 65 65 65 64 65 64 64 63 63 64 64 64 64 64 64 64 63 63 63 62 62 63 64 66 69 70 70 69 69 69 69 69 68 67 67 67 66
65 65 65 66 66 66 66 66 65 66 65 65 66 65 65 66 67 66 67 67 66 66 66 66 66 66 65 66 66 66 66 66 66 66 66 63 64 63 64 65 65 65 65 67 66 64 64 63 63 65 64 64 63 63 65 63 62 64 64 63 63 64 64 64 64 63 63 62 62 62 63 64 64 67 68 69 69 69 69 69 69 67 66 66 67
64 65 65 65 66 66 66 66 65 65 65 65 65 65 66 67 67 66 68 66 66 67 67 66 67 66 66 65 66 66 66 65 65 65 64 64 63 63 64 64 65 65 65 65 64 64 64 64 64 63 65 63 63 63 63 63 63 63 63 63 63 63 63 64 63 63 63 63 63 62 62 62 63 64 65 67 68 69 69 69 69 69 68 66 66
65 65 65 65 66 65 65 65 65 64 65 65 66 66 67 67 66 66 66 66 66 66 66 66 66 66 66 66 66 67 66 66 65 65 64 64 63 63 63 64 66 65 65 65 64 64 64 64 64 63 62 63 62 63 62 61 62 63 63 63 63 63 63 63 63 63 64 64 63 63 63 63 63 63 64 64 66 67 67 68 69 69 69 69 67
64 64 65 65 65 64 65 64 64 65 65 66 66 67 67 66 66 67 67 67 66 66 65 65 65 65 66 66 66 66 65 65 65 64 64 64 63 63 64 65 66 65 65 64 65 64 63 63 63 63 62 63 63 63 62 62 62 62 62 62 62 62 62 62 63 63 64 63 64 64 64 64 64 64 66 64 64 65 66 67 67 67 68 68 68
64 64 64 64 64 65 65 64 64 65 65 66 66 66 66 66 67 67 66 66 65 65 65 65 65 65 65 65 65 66 64 65 64 64 64 64 64 64 64 65 66 65 64 64 64 64 63 63 63 64 62 61 61 61 61 62 62 62 62 62 62 62 62 62 62 63 64 64 64 64 64 64 65 67 65 64 64 64 65 66 66 67 67 67 67
64 64 64 64 64 64 63 63 64 64 65 66 66 66 66 66 66 66 67 65 65 65 65 65 65 65 65 65 65 65 65 64 64 64 65 66 64 64 65 66 66 65 64 64 63 63 63 62 62 62 63 61 61 60 60 61 62 62 62 61 61 61 61 61 62 64 63 63 63 64 64 64 64 64 64 64 64 64 64 65 66 66 66 65 66
64 64 64 64 64 64 64 64 64 64 65 66 66 66 65 66 66 65 65 65 65 65 65 65 65 64 65 65 65 65 65 64 65 65 64 64 64 65 65 65 65 64 63 63 62 62 62 62 61 61 61 61 60 60 60 60 61 61 60 60 60 60 60 61 61 61 61 62 63 64 63 62 62 63 63 64 64 64 64 64 64 64 64 66 66
63 63 63 63 64 64 64 64 64 65 65 65 65 65 65 65 64 64 64 64 65 65 65 65 65 65 65 64 64 64 64 65 64 65 65 64 64 64 63 63 63 62 62 61 61 61 61 61 61 60 59 60 60 60 60 60 59 57 59 60 59 58 60 59 59 60 60 61 62 61 60 59 60 61 61 62 62 62 62 62 64 63 63 64 65
63 63 63 63 64 64 65 64 65 65 65 64 64 64 64 64 64 64 63 64 65 65 65 65 64 64 64 65 64 64 64 64 64 64 63 64 62 62 61 61 61 61 60 60 60 60 60 60 59 59 59 58 58 59 59 59 58 57 58 58 58 58 60 58 57 58 59 60 61 58 57 57 58 58 59 59 58 58 59 60 60 61 62 63 63
63 62 62 63 65 65 65 65 65 64 63 64 64 63 63 63 63 64 64 65 64 63 63 63 64 64 65 64 64 63 63 62 62 61 61 60 60 60 59 59 60 59 60 60 60 61 58 58 58 58 59 58 57 58 58 58 56 56 56 57 55 57 57 57 57 57 58 59 58 55 54 55 56 56 56 54 54 54 55 58 59 60 61 60 59
63 62 63 64 65 65 65 64 64 63 63 64 63 63 62 63 64 64 64 64 65 64 64 65 64 62 62 62 61 61 60 60 60 60 59 58 58 58 58 58 58 59 58 58 58 58 57 57 57 57 56 57 57 58 57 57 54 55 56 55 51 54 55 55 55 56 57 58 57 54 53 54 55 55 54 51 51 52 53 55 58 58 57 56 56
63 63 64 64 65 65 65 65 64 63 63 64 64 63 64 64 64 64 64 64 64 65 63 63 61 60 59 59 58 58 58 58 58 58 58 58 58 57 57 57 57 58 57 57 56 56 56 56 56 57 55 55 55 55 57 55 56 56 54 54 54 54 53 50 53 54 55 56 55 53 52 52 54 53 52 50 50 51 51 53 57 57 54 53 52
63 63 64 64 65 65 65 64 64 63 64 65 64 64 64 64 64 64 64 63 64 63 62 61 61 60 58 57 57 57 57 57 57 57 57 56 57 57 57 56 56 56 56 56 56 55 55 55 55 56 55 54 53 53 54 55 53 56 56 54 53 52 53 52 53 52 53 54 54 52 52 49 52 52 52 49 49 50 51 51 54 54 52 50 49
63 64 64 65 65 65 65 64 64 64 64 64 64 64 63 63 63 62 62 62 61 61 59 59 58 57 56 56 56 56 56 56 56 56 56 56 55 56 56 55 55 56 56 55 55 54 54 54 55 55 54 54 52 52 51 53 53 53 53 55 56 53 52 52 50 49 53 52 53 52 49 48 50 51 50 47 46 48 50 50 50 53 48 46 46
63 64 65 65 65 65 65 64 64 64 64 64 64 63 63 63 62 62 62 62 61 61 60 59 56 56 55 55 55 55 55 55 55 55 55 55 54 54 55 54 54 55 56 53 53 53 53 54 54 54 53 53 51 50 50 50 50 51 51 52 53 52 51 50 48 50 48 51 51 49 49 48 48 50 49 45 44 46 47 49 47 52 45 44 44
64 64 64 64 64 64 64 64 64 64 64 64 63 62 62 62 62 62 62 62 61 59 58 56 56 56 54 54 54 54 54 54 54 54 55 55 54 53 54 54 54 54 54 52 52 52 52 53 53 53 53 52 51 49 49 49 48 48 51 49 50 49 49 48 48 48 49 47 46 47 48 46 46 48 48 44 43 46 44 46 44 43 43 42 42
64 64 64 64 64 64 64 64 63 63 64 64 63 63 62 62 62 62 62 62 60 58 57 56 55 55 54 54 53 53 53 53 53 53 52 53 54 52 53 53 53 53 54 52 51 51 51 51 50 50 50 50 51 50 49 48 48 48 47 47 47 47 47 46 46 46 47 44 44 43 43 42 42 44 46 43 42 44 43 43 43 41 43 41 40
63 64 64 64 64 64 64 62 62 63 63 63 63 62 62 62 61 62 62 61 59 57 56 55 54 54 53 53 53 52 52 52 51 51 51 52 52 52 51 52 52 53 52 50 50 50 50 50 50 50 49 48 49 49 48 47 47 47 46 46 45 45 44 43 43 43 44 45 42 41 41 40 37 39 44 41 41 42 41 40 40 39 40 39 39
63 63 63 63 63 63 62 62 62 63 63 63 63 62 62 62 62 62 61 60 58 56 55 54 53 52 52 52 52 51 51 50 51 50 50 50 51 52 51 51 52 53 51 49 49 49 49 49 49 48 48 48 47 47 47 46 45 45 44 44 44 43 43 42 42 42 42 41 40 39 39 40 39 39 41 40 41 40 40 39 39 39 39 39 38